Time,TemperatureF,DewpointF,PressureIn,WindDirection,WindDirectionDegrees,WindSpeedMPH,WindSpeedGustMPH,Humidity,HourlyPrecipIn,Conditions,Clouds,dailyrainin,SoftwareType,DateUTC
2013-02-18 00:00:00,16.3,-7.1,29.26,North,0,0.0,0.0,34,0.00,,---,0.00,VWS V14.00,2013-02-18 05:00:00,
2013-02-18 00:03:00,16.2,-7.3,29.26,North,0,0.0,0.0,34,0.00,,---,0.00,VWS V14.00,2013-02-18 05:03:00,
2013-02-18 00:08:00,16.2,-7.3,29.26,North,0,0.0,0.0,34,0.00,,---,0.00,VWS V14.00,2013-02-18 05:08:00,
2013-02-18 00:10:00,16.2,-7.3,29.26,North,0,0.0,0.0,34,0.00,,---,0.00,VWS V14.00,2013-02-18 05:10:00,
2013-02-18 00:13:00,16.2,-7.3,29.26,North,0,0.0,0.0,34,0.00,,---,0.00,VWS V14.00,2013-02-18 05:13:00,
2013-02-18 00:19:00,16.0,-7.4,29.29,North,0,0.0,0.0,34,0.00,,---,0.00,VWS V14.00,2013-02-18 05:19:00,
2013-02-18 00:25:00,16.0,-7.4,29.29,North,0,0.0,0.0,34,0.00,,---,0.00,VWS V14.00,2013-02-18 05:25:00,
2013-02-18 00:30:00,15.8,-7.6,29.29,North,0,0.0,0.0,34,0.00,,---,0.00,VWS V14.00,2013-02-18 05:30:00,
2013-02-18 00:35:00,15.8,-7.6,29.29,North,0,0.0,0.0,34,0.00,,---,0.00,VWS V14.00,2013-02-18 05:35:00,
2013-02-18 00:40:00,15.8,-7.6,29.29,North,0,0.0,0.0,34,0.00,,---,0.00,VWS V14.00,2013-02-18 05:40:00,
2013-02-18 00:46:00,15.6,-7.8,29.29,North,0,0.0,0.0,34,0.00,,---,0.00,VWS V14.00,2013-02-18 05:46:00,
2013-02-18 00:51:00,15.6,-7.2,29.29,North,0,0.0,0.0,35,0.00,,---,0.00,VWS V14.00,2013-02-18 05:51:00,
2013-02-18 00:56:00,15.4,-7.9,29.29,North,0,0.0,0.0,34,0.00,,---,0.00,VWS V14.00,2013-02-18 05:56:00,
2013-02-18 01:01:00,15.4,-7.3,29.29,North,0,0.0,0.0,35,0.00,,---,0.00,VWS V14.00,2013-02-18 06:01:00,
2013-02-18 01:06:00,15.3,-7.5,29.26,North,0,0.0,0.0,35,0.00,,---,0.00,VWS V14.00,2013-02-18 06:06:00,
2013-02-18 01:12:00,15.3,-7.5,29.26,North,0,0.0,0.0,35,0.00,,---,0.00,VWS V14.00,2013-02-18 06:12:00,
2013-02-18 01:17:00,15.3,-7.5,29.29,North,0,0.0,0.0,35,0.00,,---,0.00,VWS V14.00,2013-02-18 06:17:00,
2013-02-18 01:22:00,15.1,-7.6,29.29,North,0,0.0,0.0,35,0.00,,---,0.00,VWS V14.00,2013-02-18 06:22:00,
2013-02-18 01:27:00,15.1,-7.6,29.29,North,0,0.0,0.0,35,0.00,,---,0.00,VWS V14.00,2013-02-18 06:27:00,
2013-02-18 01:32:00,15.1,-7.6,29.29,North,0,0.0,0.0,35,0.00,,---,0.00,VWS V14.00,2013-02-18 06:32:00,
2013-02-18 01:38:00,14.9,-7.8,29.29,North,0,0.0,0.0,35,0.00,,---,0.00,VWS V14.00,2013-02-18 06:38:00,
2013-02-18 01:43:00,14.9,-7.8,29.29,North,0,0.0,0.0,35,0.00,,---,0.00,VWS V14.00,2013-02-18 06:43:00,
2013-02-18 01:49:00,14.7,-8.0,29.32,North,0,0.0,0.0,35,0.00,,---,0.00,VWS V14.00,2013-02-18 06:49:00,
2013-02-18 01:54:00,14.5,-8.1,29.32,North,0,0.0,0.0,35,0.00,,---,0.00,VWS V14.00,2013-02-18 06:54:00,
2013-02-18 02:00:00,14.4,-8.3,29.32,North,0,0.0,0.0,35,0.00,,---,0.00,VWS V14.00,2013-02-18 07:00:00,
2013-02-18 02:05:00,14.4,-8.3,29.29,North,0,0.0,0.0,35,0.00,,---,0.00,VWS V14.00,2013-02-18 07:05:00,
2013-02-18 02:10:00,14.2,-8.4,29.29,North,0,0.0,0.0,35,0.00,,---,0.00,VWS V14.00,2013-02-18 07:10:00,
2013-02-18 02:16:00,14.2,-8.4,29.32,North,0,0.0,0.0,35,0.00,,---,0.00,VWS V14.00,2013-02-18 07:16:00,
2013-02-18 02:21:00,14.0,-8.6,29.32,North,0,0.0,0.0,35,0.00,,---,0.00,VWS V14.00,2013-02-18 07:21:00,
2013-02-18 02:26:00,13.8,-8.8,29.32,North,0,0.0,0.0,35,0.00,,---,0.00,VWS V14.00,2013-02-18 07:26:00,
2013-02-18 02:31:00,13.8,-8.8,29.32,North,0,0.0,0.0,35,0.00,,---,0.00,VWS V14.00,2013-02-18 07:31:00,
2013-02-18 02:37:00,13.8,-8.8,29.32,North,0,0.0,0.0,35,0.00,,---,0.00,VWS V14.00,2013-02-18 07:37:00,
2013-02-18 02:43:00,13.8,-8.8,29.32,North,0,0.0,0.0,35,0.00,,---,0.00,VWS V14.00,2013-02-18 07:43:00,
2013-02-18 02:48:00,13.8,-8.8,29.32,North,0,0.0,0.0,35,0.00,,---,0.00,VWS V14.00,2013-02-18 07:48:00,
2013-02-18 02:53:00,13.8,-8.8,29.32,North,0,0.0,0.0,35,0.00,,---,0.00,VWS V14.00,2013-02-18 07:53:00,
2013-02-18 02:58:00,13.8,-8.8,29.32,North,0,0.0,0.0,35,0.00,,---,0.00,VWS V14.00,2013-02-18 07:58:00,
2013-02-18 03:03:00,13.6,-8.9,29.35,North,0,0.0,0.0,35,0.00,,---,0.00,VWS V14.00,2013-02-18 08:03:00,
2013-02-18 03:09:00,13.8,-8.8,29.35,North,0,0.0,0.0,35,0.00,,---,0.00,VWS V14.00,2013-02-18 08:09:00,
2013-02-18 03:14:00,13.6,-8.9,29.35,North,0,0.0,0.0,35,0.00,,---,0.00,VWS V14.00,2013-02-18 08:14:00,
2013-02-18 03:19:00,13.6,-8.9,29.35,North,0,0.0,0.0,35,0.00,,---,0.00,VWS V14.00,2013-02-18 08:19:00,
2013-02-18 03:24:00,13.6,-8.9,29.35,North,0,0.0,0.0,35,0.00,,---,0.00,VWS V14.00,2013-02-18 08:24:00,
2013-02-18 03:29:00,13.5,-9.1,29.35,North,0,0.0,0.0,35,0.00,,---,0.00,VWS V14.00,2013-02-18 08:29:00,
2013-02-18 03:35:00,13.5,-9.1,29.35,North,0,0.0,0.0,35,0.00,,---,0.00,VWS V14.00,2013-02-18 08:35:00,
2013-02-18 03:40:00,13.5,-9.1,29.35,North,0,0.0,0.0,35,0.00,,---,0.00,VWS V14.00,2013-02-18 08:40:00,
2013-02-18 03:45:00,13.3,-9.2,29.35,North,0,0.0,0.0,35,0.00,,---,0.00,VWS V14.00,2013-02-18 08:45:00,
2013-02-18 03:51:00,13.3,-9.2,29.35,North,0,0.0,0.0,35,0.00,,---,0.00,VWS V14.00,2013-02-18 08:51:00,
2013-02-18 03:56:00,13.3,-9.2,29.35,North,0,0.0,0.0,35,0.00,,---,0.00,VWS V14.00,2013-02-18 08:56:00,
2013-02-18 04:01:00,13.3,-9.2,29.38,North,0,0.0,0.0,35,0.00,,---,0.00,VWS V14.00,2013-02-18 09:01:00,
2013-02-18 04:06:00,13.3,-9.2,29.38,North,0,0.0,0.0,35,0.00,,---,0.00,VWS V14.00,2013-02-18 09:06:00,
2013-02-18 04:12:00,13.3,-9.2,29.38,North,0,0.0,0.0,35,0.00,,---,0.00,VWS V14.00,2013-02-18 09:12:00,
2013-02-18 04:18:00,13.5,-9.1,29.38,North,0,0.0,0.0,35,0.00,,---,0.00,VWS V14.00,2013-02-18 09:18:00,
2013-02-18 04:23:00,13.3,-9.2,29.38,North,0,0.0,0.0,35,0.00,,---,0.00,VWS V14.00,2013-02-18 09:23:00,
2013-02-18 04:28:00,13.3,-9.2,29.38,North,0,0.0,0.0,35,0.00,,---,0.00,VWS V14.00,2013-02-18 09:28:00,
2013-02-18 04:33:00,13.3,-9.2,29.38,North,0,0.0,0.0,35,0.00,,---,0.00,VWS V14.00,2013-02-18 09:33:00,
2013-02-18 04:38:00,13.3,-9.2,29.38,North,0,0.0,0.0,35,0.00,,---,0.00,VWS V14.00,2013-02-18 09:38:00,
2013-02-18 04:44:00,13.3,-9.2,29.38,North,0,0.0,0.0,35,0.00,,---,0.00,VWS V14.00,2013-02-18 09:44:00,
2013-02-18 04:49:00,13.3,-9.2,29.41,North,0,0.0,0.0,35,0.00,,---,0.00,VWS V14.00,2013-02-18 09:49:00,
2013-02-18 04:54:00,13.3,-9.2,29.41,North,0,0.0,0.0,35,0.00,,---,0.00,VWS V14.00,2013-02-18 09:54:00,
2013-02-18 04:59:00,13.3,-9.2,29.41,North,0,0.0,0.0,35,0.00,,---,0.00,VWS V14.00,2013-02-18 09:59:00,
2013-02-18 05:04:00,13.3,-9.2,29.41,North,0,0.0,0.0,35,0.00,,---,0.00,VWS V14.00,2013-02-18 10:04:00,
2013-02-18 05:10:00,13.3,-9.2,29.41,North,0,0.0,0.0,35,0.00,,---,0.00,VWS V14.00,2013-02-18 10:10:00,
2013-02-18 05:15:00,13.3,-9.2,29.41,North,0,0.0,0.0,35,0.00,,---,0.00,VWS V14.00,2013-02-18 10:15:00,
2013-02-18 05:20:00,13.3,-9.2,29.41,North,0,0.0,0.0,35,0.00,,---,0.00,VWS V14.00,2013-02-18 10:20:00,
2013-02-18 05:26:00,13.1,-9.4,29.41,North,0,0.0,0.0,35,0.00,,---,0.00,VWS V14.00,2013-02-18 10:26:00,
2013-02-18 05:31:00,12.9,-9.6,29.41,North,0,0.0,0.0,35,0.00,,---,0.00,VWS V14.00,2013-02-18 10:31:00,
2013-02-18 05:36:00,12.9,-9.6,29.41,North,0,0.0,0.0,35,0.00,,---,0.00,VWS V14.00,2013-02-18 10:36:00,
2013-02-18 05:41:00,12.7,-9.7,29.41,North,0,0.0,0.0,35,0.00,,---,0.00,VWS V14.00,2013-02-18 10:41:00,
2013-02-18 05:46:00,12.9,-9.6,29.44,North,0,0.0,0.0,35,0.00,,---,0.00,VWS V14.00,2013-02-18 10:46:00,
2013-02-18 05:52:00,12.9,-9.6,29.44,North,0,0.0,0.0,35,0.00,,---,0.00,VWS V14.00,2013-02-18 10:52:00,
2013-02-18 05:57:00,12.9,-9.6,29.44,North,0,0.0,0.0,35,0.00,,---,0.00,VWS V14.00,2013-02-18 10:57:00,
2013-02-18 06:02:00,12.7,-9.7,29.44,North,0,0.0,0.0,35,0.00,,---,0.00,VWS V14.00,2013-02-18 11:02:00,
2013-02-18 06:08:00,12.7,-9.7,29.44,North,0,0.0,0.0,35,0.00,,---,0.00,VWS V14.00,2013-02-18 11:08:00,
2013-02-18 06:13:00,12.7,-9.7,29.44,North,0,0.0,0.0,35,0.00,,---,0.00,VWS V14.00,2013-02-18 11:13:00,
2013-02-18 06:19:00,12.7,-9.7,29.44,North,0,0.0,0.0,35,0.00,,---,0.00,VWS V14.00,2013-02-18 11:19:00,
2013-02-18 06:24:00,12.6,-9.9,29.44,North,0,0.0,0.0,35,0.00,,---,0.00,VWS V14.00,2013-02-18 11:24:00,
2013-02-18 06:29:00,12.6,-9.9,29.44,North,0,0.0,0.0,35,0.00,,---,0.00,VWS V14.00,2013-02-18 11:29:00,
2013-02-18 06:34:00,12.6,-9.9,29.47,North,0,0.0,0.0,35,0.00,,---,0.00,VWS V14.00,2013-02-18 11:34:00,
2013-02-18 06:40:00,12.7,-9.7,29.47,North,0,0.0,0.0,35,0.00,,---,0.00,VWS V14.00,2013-02-18 11:40:00,
2013-02-18 06:45:00,12.7,-9.7,29.47,North,0,0.0,0.0,35,0.00,,---,0.00,VWS V14.00,2013-02-18 11:45:00,
2013-02-18 06:50:00,12.6,-9.9,29.47,North,0,0.0,0.0,35,0.00,,---,0.00,VWS V14.00,2013-02-18 11:50:00,
2013-02-18 06:55:00,12.4,-10.1,29.47,North,0,0.0,0.0,35,0.00,,---,0.00,VWS V14.00,2013-02-18 11:55:00,
2013-02-18 07:01:00,12.4,-10.1,29.50,North,0,0.0,0.0,35,0.00,,---,0.00,VWS V14.00,2013-02-18 12:01:00,
2013-02-18 07:06:00,12.6,-9.9,29.50,North,0,0.0,0.0,35,0.00,,---,0.00,VWS V14.00,2013-02-18 12:06:00,
2013-02-18 07:11:00,12.6,-9.9,29.50,North,0,0.0,0.0,35,0.00,,---,0.00,VWS V14.00,2013-02-18 12:11:00,
2013-02-18 07:17:00,12.9,-9.6,29.50,North,0,0.0,0.0,35,0.00,,---,0.00,VWS V14.00,2013-02-18 12:17:00,
2013-02-18 07:23:00,13.3,-9.2,29.50,North,0,0.0,0.0,35,0.00,,---,0.00,VWS V14.00,2013-02-18 12:23:00,
2013-02-18 07:28:00,13.5,-9.1,29.50,North,0,0.0,0.0,35,0.00,,---,0.00,VWS V14.00,2013-02-18 12:28:00,
2013-02-18 07:33:00,14.4,-8.3,29.50,North,0,0.0,0.0,35,0.00,,---,0.00,VWS V14.00,2013-02-18 12:33:00,
2013-02-18 07:38:00,17.6,-6.0,29.50,North,0,0.0,0.0,34,0.00,,---,0.00,VWS V14.00,2013-02-18 12:38:00,
2013-02-18 07:43:00,21.4,-3.2,29.50,North,0,0.0,0.0,33,0.00,,---,0.00,VWS V14.00,2013-02-18 12:43:00,
2013-02-18 07:48:00,20.1,-4.4,29.53,North,0,0.0,0.0,33,0.00,,---,0.00,VWS V14.00,2013-02-18 12:48:00,
2013-02-18 07:54:00,23.4,-1.5,29.53,North,0,0.0,0.0,33,0.00,,---,0.00,VWS V14.00,2013-02-18 12:54:00,
2013-02-18 07:59:00,22.3,-2.4,29.53,North,0,0.0,0.0,33,0.00,,---,0.00,VWS V14.00,2013-02-18 12:59:00,
2013-02-18 08:05:00,19.4,-5.0,29.53,North,0,0.0,0.0,33,0.00,,---,0.00,VWS V14.00,2013-02-18 13:05:00,
2013-02-18 08:10:00,18.7,-5.6,29.53,North,0,0.0,0.0,33,0.00,,---,0.00,VWS V14.00,2013-02-18 13:10:00,
2013-02-18 08:15:00,19.0,-5.3,29.53,North,0,0.0,0.0,33,0.00,,---,0.00,VWS V14.00,2013-02-18 13:15:00,
2013-02-18 08:20:00,19.2,-4.5,29.53,North,0,0.0,0.0,34,0.00,,---,0.00,VWS V14.00,2013-02-18 13:20:00,
2013-02-18 08:25:00,21.9,-2.8,29.53,North,0,0.0,0.0,33,0.00,,---,0.00,VWS V14.00,2013-02-18 13:25:00,
2013-02-18 08:31:00,24.4,-1.2,29.53,North,0,0.0,0.0,32,0.00,,---,0.00,VWS V14.00,2013-02-18 13:31:00,
2013-02-18 08:36:00,24.6,-1.0,29.53,North,0,0.0,0.0,32,0.00,,---,0.00,VWS V14.00,2013-02-18 13:36:00,
2013-02-18 08:41:00,23.4,-2.1,29.53,North,0,0.0,0.0,32,0.00,,---,0.00,VWS V14.00,2013-02-18 13:41:00,
2013-02-18 08:46:00,25.0,-0.7,29.53,North,0,0.0,0.0,32,0.00,,---,0.00,VWS V14.00,2013-02-18 13:46:00,
2013-02-18 08:52:00,25.2,-0.5,29.53,North,0,0.0,0.0,32,0.00,,---,0.00,VWS V14.00,2013-02-18 13:52:00,
2013-02-18 08:58:00,25.9,0.1,29.53,North,0,0.0,0.0,32,0.00,,---,0.00,VWS V14.00,2013-02-18 13:58:00,
2013-02-18 09:03:00,27.3,0.7,29.56,North,0,0.0,0.0,31,0.00,,---,0.00,VWS V14.00,2013-02-18 14:03:00,
2013-02-18 09:08:00,26.2,-0.3,29.56,North,0,0.0,0.0,31,0.00,,---,0.00,VWS V14.00,2013-02-18 14:08:00,
2013-02-18 09:13:00,25.0,-1.4,29.56,North,0,0.0,0.0,31,0.00,,---,0.00,VWS V14.00,2013-02-18 14:13:00,
2013-02-18 09:18:00,27.7,1.0,29.56,North,0,0.0,0.0,31,0.00,,---,0.00,VWS V14.00,2013-02-18 14:18:00,
2013-02-18 09:23:00,29.8,2.2,29.56,North,0,0.0,0.0,30,0.00,,---,0.00,VWS V14.00,2013-02-18 14:23:00,
2013-02-18 09:29:00,33.6,5.5,29.56,North,0,0.0,0.0,30,0.00,,---,0.00,VWS V14.00,2013-02-18 14:29:00,
2013-02-18 09:34:00,34.3,3.8,29.56,North,0,0.0,0.0,27,0.00,,---,0.00,VWS V14.00,2013-02-18 14:34:00,
2013-02-18 09:39:00,34.0,3.5,29.56,North,0,0.0,0.0,27,0.00,,---,0.00,VWS V14.00,2013-02-18 14:39:00,
2013-02-18 09:44:00,33.8,1.7,29.56,North,0,0.0,0.0,25,0.00,,---,0.00,VWS V14.00,2013-02-18 14:44:00,
2013-02-18 09:50:00,31.6,-0.1,29.56,North,0,0.0,0.0,25,0.00,,---,0.00,VWS V14.00,2013-02-18 14:50:00,
2013-02-18 09:55:00,35.1,2.8,29.56,North,0,0.0,0.0,25,0.00,,---,0.00,VWS V14.00,2013-02-18 14:55:00,
2013-02-18 10:00:00,33.3,1.2,29.56,North,0,0.0,0.0,25,0.00,,---,0.00,VWS V14.00,2013-02-18 15:00:00,
2013-02-18 10:06:00,34.9,2.6,29.56,North,0,0.0,0.0,25,0.00,,---,0.00,VWS V14.00,2013-02-18 15:06:00,
2013-02-18 10:11:00,32.7,0.8,29.56,North,0,0.0,0.0,25,0.00,,---,0.00,VWS V14.00,2013-02-18 15:11:00,
2013-02-18 10:16:00,31.1,-0.6,29.56,North,0,0.0,0.0,25,0.00,,---,0.00,VWS V14.00,2013-02-18 15:16:00,
2013-02-18 10:21:00,30.2,-1.4,29.56,North,0,0.0,0.0,25,0.00,,---,0.00,VWS V14.00,2013-02-18 15:21:00,
2013-02-18 10:27:00,30.7,1.5,29.56,North,0,0.0,0.0,28,0.00,,---,0.00,VWS V14.00,2013-02-18 15:27:00,
2013-02-18 10:33:00,30.9,-0.8,29.56,North,0,0.0,0.0,25,0.00,,---,0.00,VWS V14.00,2013-02-18 15:33:00,
2013-02-18 10:38:00,30.4,-1.2,29.56,North,0,0.0,0.0,25,0.00,,---,0.00,VWS V14.00,2013-02-18 15:38:00,
2013-02-18 10:43:00,31.6,-0.1,29.56,North,0,0.0,0.0,25,0.00,,---,0.00,VWS V14.00,2013-02-18 15:43:00,
2013-02-18 10:48:00,31.6,-0.1,29.56,North,0,0.0,0.0,25,0.00,,---,0.00,VWS V14.00,2013-02-18 15:48:00,
2013-02-18 10:53:00,31.1,-0.6,29.56,North,0,0.0,0.0,25,0.00,,---,0.00,VWS V14.00,2013-02-18 15:53:00,
2013-02-18 10:59:00,30.2,-1.4,29.56,North,0,0.0,0.0,25,0.00,,---,0.00,VWS V14.00,2013-02-18 15:59:00,
2013-02-18 11:04:00,30.9,-0.8,29.56,North,0,0.0,0.0,25,0.00,,---,0.00,VWS V14.00,2013-02-18 16:04:00,
2013-02-18 11:09:00,31.6,-0.1,29.56,North,0,0.0,0.0,25,0.00,,---,0.00,VWS V14.00,2013-02-18 16:09:00,
2013-02-18 11:14:00,32.5,0.6,29.56,North,0,0.0,0.0,25,0.00,,---,0.00,VWS V14.00,2013-02-18 16:14:00,
2013-02-18 11:20:00,32.5,0.6,29.56,North,0,0.0,0.0,25,0.00,,---,0.00,VWS V14.00,2013-02-18 16:20:00,
2013-02-18 11:26:00,33.1,1.1,29.56,North,0,0.0,0.0,25,0.00,,---,0.00,VWS V14.00,2013-02-18 16:26:00,
2013-02-18 11:31:00,32.2,0.3,29.56,North,0,0.0,0.0,25,0.00,,---,0.00,VWS V14.00,2013-02-18 16:31:00,
2013-02-18 11:37:00,32.5,0.6,29.56,North,0,0.0,0.0,25,0.00,,---,0.00,VWS V14.00,2013-02-18 16:37:00,
2013-02-18 11:42:00,32.7,0.8,29.56,North,0,0.0,0.0,25,0.00,,---,0.00,VWS V14.00,2013-02-18 16:42:00,
2013-02-18 11:47:00,32.4,0.5,29.56,North,0,0.0,0.0,25,0.00,,---,0.00,VWS V14.00,2013-02-18 16:47:00,
2013-02-18 11:52:00,32.5,0.6,29.56,North,0,0.0,0.0,25,0.00,,---,0.00,VWS V14.00,2013-02-18 16:52:00,
2013-02-18 11:57:00,32.7,0.8,29.56,North,0,0.0,0.0,25,0.00,,---,0.00,VWS V14.00,2013-02-18 16:57:00,
2013-02-18 12:02:00,32.7,0.8,29.56,North,0,0.0,0.0,25,0.00,,---,0.00,VWS V14.00,2013-02-18 17:02:00,
2013-02-18 12:08:00,33.3,1.2,29.56,North,0,0.0,0.0,25,0.00,,---,0.00,VWS V14.00,2013-02-18 17:08:00,
2013-02-18 12:13:00,33.4,1.4,29.56,North,0,0.0,0.0,25,0.00,,---,0.00,VWS V14.00,2013-02-18 17:13:00,
2013-02-18 12:18:00,33.8,1.7,29.56,North,0,0.0,0.0,25,0.00,,---,0.00,VWS V14.00,2013-02-18 17:18:00,
2013-02-18 12:23:00,32.2,-1.4,29.56,North,0,0.0,0.0,23,0.00,,---,0.00,VWS V14.00,2013-02-18 17:23:00,
2013-02-18 12:28:00,33.1,1.1,29.56,North,0,0.0,0.0,25,0.00,,---,0.00,VWS V14.00,2013-02-18 17:28:00,
2013-02-18 12:34:00,32.9,0.9,29.56,North,0,0.0,0.0,25,0.00,,---,0.00,VWS V14.00,2013-02-18 17:34:00,
2013-02-18 12:39:00,33.3,1.2,29.56,North,0,0.0,0.0,25,0.00,,---,0.00,VWS V14.00,2013-02-18 17:39:00,
2013-02-18 12:44:00,33.6,1.6,29.56,North,0,0.0,0.0,25,0.00,,---,0.00,VWS V14.00,2013-02-18 17:44:00,
2013-02-18 12:50:00,33.6,1.6,29.56,North,0,0.0,0.0,25,0.00,,---,0.00,VWS V14.00,2013-02-18 17:50:00,
2013-02-18 12:55:00,33.3,1.2,29.56,North,0,0.0,0.0,25,0.00,,---,0.00,VWS V14.00,2013-02-18 17:55:00,
2013-02-18 13:00:00,33.1,1.1,29.56,North,0,0.0,0.0,25,0.00,,---,0.00,VWS V14.00,2013-02-18 18:00:00,
2013-02-18 13:05:00,33.3,1.2,29.59,North,0,0.0,0.0,25,0.00,,---,0.00,VWS V14.00,2013-02-18 18:05:00,
2013-02-18 13:10:00,33.3,1.2,29.59,North,0,0.0,0.0,25,0.00,,---,0.00,VWS V14.00,2013-02-18 18:10:00,
2013-02-18 13:15:00,34.0,1.9,29.59,North,0,0.0,0.0,25,0.00,,---,0.00,VWS V14.00,2013-02-18 18:15:00,
2013-02-18 13:21:00,34.5,2.3,29.59,North,0,0.0,0.0,25,0.00,,---,0.00,VWS V14.00,2013-02-18 18:21:00,
2013-02-18 13:26:00,34.0,-0.9,29.59,North,0,0.0,0.0,22,0.00,,---,0.00,VWS V14.00,2013-02-18 18:26:00,
2013-02-18 13:32:00,33.8,-1.0,29.59,North,0,0.0,0.0,22,0.00,,---,0.00,VWS V14.00,2013-02-18 18:32:00,
2013-02-18 13:37:00,33.8,1.7,29.59,North,0,0.0,0.0,25,0.00,,---,0.00,VWS V14.00,2013-02-18 18:37:00,
2013-02-18 13:43:00,34.2,2.0,29.59,North,0,0.0,0.0,25,0.00,,---,0.00,VWS V14.00,2013-02-18 18:43:00,
2013-02-18 13:48:00,34.0,-0.9,29.59,North,0,0.0,0.0,22,0.00,,---,0.00,VWS V14.00,2013-02-18 18:48:00,
2013-02-18 13:53:00,34.3,2.2,29.59,North,0,0.0,0.0,25,0.00,,---,0.00,VWS V14.00,2013-02-18 18:53:00,
2013-02-18 13:58:00,34.0,1.9,29.59,North,0,0.0,0.0,25,0.00,,---,0.00,VWS V14.00,2013-02-18 18:58:00,
2013-02-18 14:04:00,34.0,1.9,29.59,North,0,0.0,0.0,25,0.00,,---,0.00,VWS V14.00,2013-02-18 19:04:00,
2013-02-18 14:09:00,33.8,1.7,29.59,North,0,0.0,0.0,25,0.00,,---,0.00,VWS V14.00,2013-02-18 19:09:00,
2013-02-18 14:14:00,33.8,1.7,29.59,North,0,0.0,0.0,25,0.00,,---,0.00,VWS V14.00,2013-02-18 19:14:00,
2013-02-18 14:19:00,34.2,2.0,29.59,North,0,0.0,0.0,25,0.00,,---,0.00,VWS V14.00,2013-02-18 19:19:00,
2013-02-18 14:25:00,34.0,-0.9,29.59,North,0,0.0,0.0,22,0.00,,---,0.00,VWS V14.00,2013-02-18 19:25:00,
2013-02-18 14:30:00,33.4,-0.4,29.59,North,0,0.0,0.0,23,0.00,,---,0.00,VWS V14.00,2013-02-18 19:30:00,
2013-02-18 14:35:00,33.6,1.6,29.59,North,0,0.0,0.0,25,0.00,,---,0.00,VWS V14.00,2013-02-18 19:35:00,
2013-02-18 14:41:00,33.8,-1.0,29.59,North,0,0.0,0.0,22,0.00,,---,0.00,VWS V14.00,2013-02-18 19:41:00,
2013-02-18 14:46:00,34.3,2.2,29.59,North,0,0.0,0.0,25,0.00,,---,0.00,VWS V14.00,2013-02-18 19:46:00,
2013-02-18 14:52:00,33.8,-1.0,29.59,North,0,0.0,0.0,22,0.00,,---,0.00,VWS V14.00,2013-02-18 19:52:00,
2013-02-18 14:57:00,34.2,2.0,29.59,North,0,0.0,0.0,25,0.00,,---,0.00,VWS V14.00,2013-02-18 19:57:00,
2013-02-18 15:02:00,33.6,-0.2,29.59,North,0,0.0,0.0,23,0.00,,---,0.00,VWS V14.00,2013-02-18 20:02:00,
2013-02-18 15:08:00,33.1,-0.7,29.59,North,0,0.0,0.0,23,0.00,,---,0.00,VWS V14.00,2013-02-18 20:08:00,
2013-02-18 15:13:00,33.3,-0.5,29.59,North,0,0.0,0.0,23,0.00,,---,0.00,VWS V14.00,2013-02-18 20:13:00,
2013-02-18 15:18:00,33.3,-0.5,29.59,North,0,0.0,0.0,23,0.00,,---,0.00,VWS V14.00,2013-02-18 20:18:00,
2013-02-18 15:23:00,32.9,-0.8,29.59,North,0,0.0,0.0,23,0.00,,---,0.00,VWS V14.00,2013-02-18 20:23:00,
2013-02-18 15:28:00,32.5,-1.1,29.59,North,0,0.0,0.0,23,0.00,,---,0.00,VWS V14.00,2013-02-18 20:28:00,
2013-02-18 15:34:00,32.7,-1.0,29.59,North,0,0.0,0.0,23,0.00,,---,0.00,VWS V14.00,2013-02-18 20:34:00,
2013-02-18 15:39:00,32.9,-0.8,29.59,North,0,0.0,0.0,23,0.00,,---,0.00,VWS V14.00,2013-02-18 20:39:00,
2013-02-18 15:44:00,32.7,-1.0,29.59,North,0,0.0,0.0,23,0.00,,---,0.00,VWS V14.00,2013-02-18 20:44:00,
2013-02-18 15:50:00,32.0,-1.6,29.62,North,0,0.0,0.0,23,0.00,,---,0.00,VWS V14.00,2013-02-18 20:50:00,
2013-02-18 15:55:00,31.3,-2.2,29.62,North,0,0.0,0.0,23,0.00,,---,0.00,VWS V14.00,2013-02-18 20:55:00,
2013-02-18 16:01:00,30.9,-2.5,29.62,North,0,0.0,0.0,23,0.00,,---,0.00,VWS V14.00,2013-02-18 21:01:00,
2013-02-18 16:06:00,30.6,-2.8,29.62,North,0,0.0,0.0,23,0.00,,---,0.00,VWS V14.00,2013-02-18 21:06:00,
2013-02-18 16:12:00,30.2,-3.1,29.62,North,0,0.0,0.0,23,0.00,,---,0.00,VWS V14.00,2013-02-18 21:12:00,
2013-02-18 16:19:00,29.7,-3.6,29.62,North,0,0.0,0.0,23,0.00,,---,0.00,VWS V14.00,2013-02-18 21:19:00,
2013-02-18 16:24:00,29.5,-3.7,29.62,North,0,0.0,0.0,23,0.00,,---,0.00,VWS V14.00,2013-02-18 21:24:00,
2013-02-18 16:29:00,29.3,-3.9,29.62,North,0,0.0,0.0,23,0.00,,---,0.00,VWS V14.00,2013-02-18 21:29:00,
2013-02-18 16:34:00,29.1,-4.1,29.62,North,0,0.0,0.0,23,0.00,,---,0.00,VWS V14.00,2013-02-18 21:34:00,
2013-02-18 16:39:00,28.8,-4.3,29.62,North,0,0.0,0.0,23,0.00,,---,0.00,VWS V14.00,2013-02-18 21:39:00,
2013-02-18 16:44:00,28.6,-4.5,29.62,North,0,0.0,0.0,23,0.00,,---,0.00,VWS V14.00,2013-02-18 21:44:00,
2013-02-18 16:50:00,28.4,-4.7,29.62,North,0,0.0,0.0,23,0.00,,---,0.00,VWS V14.00,2013-02-18 21:50:00,
2013-02-18 16:55:00,28.2,-4.8,29.62,North,0,0.0,0.0,23,0.00,,---,0.00,VWS V14.00,2013-02-18 21:55:00,
2013-02-18 17:00:00,27.9,-5.1,29.62,North,0,0.0,0.0,23,0.00,,---,0.00,VWS V14.00,2013-02-18 22:00:00,
2013-02-18 17:06:00,27.3,-5.6,29.65,North,0,0.0,0.0,23,0.00,,---,0.00,VWS V14.00,2013-02-18 22:06:00,
2013-02-18 17:12:00,27.0,-5.9,29.65,North,0,0.0,0.0,23,0.00,,---,0.00,VWS V14.00,2013-02-18 22:12:00,
2013-02-18 17:17:00,26.8,-6.0,29.65,North,0,0.0,0.0,23,0.00,,---,0.00,VWS V14.00,2013-02-18 22:17:00,
2013-02-18 17:23:00,26.2,-5.6,29.65,North,0,0.0,0.0,24,0.00,,---,0.00,VWS V14.00,2013-02-18 22:23:00,
2013-02-18 17:28:00,26.1,-5.8,29.65,North,0,0.0,0.0,24,0.00,,---,0.00,VWS V14.00,2013-02-18 22:28:00,
2013-02-18 17:33:00,25.9,-5.9,29.65,North,0,0.0,0.0,24,0.00,,---,0.00,VWS V14.00,2013-02-18 22:33:00,
2013-02-18 17:38:00,25.7,-6.1,29.65,North,0,0.0,0.0,24,0.00,,---,0.00,VWS V14.00,2013-02-18 22:38:00,
2013-02-18 17:43:00,25.5,-6.2,29.65,North,0,0.0,0.0,24,0.00,,---,0.00,VWS V14.00,2013-02-18 22:43:00,
2013-02-18 17:48:00,25.3,-6.4,29.65,North,0,0.0,0.0,24,0.00,,---,0.00,VWS V14.00,2013-02-18 22:48:00,
2013-02-18 17:53:00,25.3,-6.4,29.65,North,0,0.0,0.0,24,0.00,,---,0.00,VWS V14.00,2013-02-18 22:53:00,
2013-02-18 17:59:00,25.2,-6.6,29.65,North,0,0.0,0.0,24,0.00,,---,0.00,VWS V14.00,2013-02-18 22:59:00,
2013-02-18 18:04:00,25.3,-6.4,29.65,North,0,0.0,0.0,24,0.00,,---,0.00,VWS V14.00,2013-02-18 23:04:00,
2013-02-18 18:09:00,25.2,-6.6,29.65,North,0,0.0,0.0,24,0.00,,---,0.00,VWS V14.00,2013-02-18 23:09:00,
2013-02-18 18:15:00,25.0,-6.7,29.65,North,0,0.0,0.0,24,0.00,,---,0.00,VWS V14.00,2013-02-18 23:15:00,
2013-02-18 18:21:00,24.8,-6.9,29.68,North,0,0.0,0.0,24,0.00,,---,0.00,VWS V14.00,2013-02-18 23:21:00,
2013-02-18 18:26:00,24.8,-6.9,29.68,North,0,0.0,0.0,24,0.00,,---,0.00,VWS V14.00,2013-02-18 23:26:00,
2013-02-18 18:32:00,24.6,-7.0,29.68,North,0,0.0,0.0,24,0.00,,---,0.00,VWS V14.00,2013-02-18 23:32:00,
2013-02-18 18:38:00,24.3,-7.3,29.68,North,0,0.0,0.0,24,0.00,,---,0.00,VWS V14.00,2013-02-18 23:38:00,
2013-02-18 18:44:00,24.4,-7.2,29.68,North,0,0.0,0.0,24,0.00,,---,0.00,VWS V14.00,2013-02-18 23:44:00,
2013-02-18 18:49:00,24.4,-7.2,29.68,North,0,0.0,0.0,24,0.00,,---,0.00,VWS V14.00,2013-02-18 23:49:00,
2013-02-18 18:54:00,24.6,-7.0,29.68,North,0,0.0,0.0,24,0.00,,---,0.00,VWS V14.00,2013-02-18 23:54:00,
2013-02-18 18:59:00,24.6,-7.0,29.68,North,0,0.0,0.0,24,0.00,,---,0.00,VWS V14.00,2013-02-18 23:59:00,
2013-02-18 19:05:00,24.6,-7.0,29.68,North,0,0.0,0.0,24,0.00,,---,0.00,VWS V14.00,2013-02-19 00:05:00,
2013-02-18 19:10:00,24.6,-7.0,29.68,North,0,0.0,0.0,24,0.00,,---,0.00,VWS V14.00,2013-02-19 00:10:00,
2013-02-18 19:16:00,24.6,-7.0,29.68,North,0,0.0,0.0,24,0.00,,---,0.00,VWS V14.00,2013-02-19 00:16:00,
2013-02-18 19:21:00,24.6,-7.0,29.68,North,0,0.0,0.0,24,0.00,,---,0.00,VWS V14.00,2013-02-19 00:21:00,
2013-02-18 19:26:00,24.4,-7.2,29.68,North,0,0.0,0.0,24,0.00,,---,0.00,VWS V14.00,2013-02-19 00:26:00,
2013-02-18 19:31:00,24.4,-7.2,29.68,North,0,0.0,0.0,24,0.00,,---,0.00,VWS V14.00,2013-02-19 00:31:00,
2013-02-18 19:36:00,24.4,-7.2,29.68,North,0,0.0,0.0,24,0.00,,---,0.00,VWS V14.00,2013-02-19 00:36:00,
2013-02-18 19:42:00,24.4,-7.2,29.68,North,0,0.0,0.0,24,0.00,,---,0.00,VWS V14.00,2013-02-19 00:42:00,
2013-02-18 19:47:00,24.3,-7.3,29.68,North,0,0.0,0.0,24,0.00,,---,0.00,VWS V14.00,2013-02-19 00:47:00,
2013-02-18 19:52:00,24.1,-5.1,29.68,North,0,0.0,0.0,27,0.00,,---,0.00,VWS V14.00,2013-02-19 00:52:00,
2013-02-18 19:57:00,23.7,-7.8,29.68,North,0,0.0,0.0,24,0.00,,---,0.00,VWS V14.00,2013-02-19 00:57:00,
2013-02-18 20:05:00,23.7,-5.4,29.68,North,0,0.0,0.0,27,0.00,,---,0.00,VWS V14.00,2013-02-19 01:05:00,
2013-02-18 20:11:00,23.5,-5.5,29.68,North,0,0.0,0.0,27,0.00,,---,0.00,VWS V14.00,2013-02-19 01:11:00,
2013-02-18 20:16:00,23.2,-5.8,29.68,North,0,0.0,0.0,27,0.00,,---,0.00,VWS V14.00,2013-02-19 01:16:00,
2013-02-18 20:21:00,23.0,-6.0,29.68,North,0,0.0,0.0,27,0.00,,---,0.00,VWS V14.00,2013-02-19 01:21:00,
2013-02-18 20:26:00,22.8,-6.1,29.68,North,0,0.0,0.0,27,0.00,,---,0.00,VWS V14.00,2013-02-19 01:26:00,
2013-02-18 20:32:00,22.6,-6.3,29.71,North,0,0.0,0.0,27,0.00,,---,0.00,VWS V14.00,2013-02-19 01:32:00,
2013-02-18 20:37:00,22.6,-6.3,29.71,North,0,0.0,0.0,27,0.00,,---,0.00,VWS V14.00,2013-02-19 01:37:00,
2013-02-18 20:42:00,22.3,-6.6,29.71,North,0,0.0,0.0,27,0.00,,---,0.00,VWS V14.00,2013-02-19 01:42:00,
2013-02-18 20:48:00,21.9,-6.9,29.71,North,0,0.0,0.0,27,0.00,,---,0.00,VWS V14.00,2013-02-19 01:48:00,
2013-02-18 20:53:00,22.1,-6.8,29.71,North,0,0.0,0.0,27,0.00,,---,0.00,VWS V14.00,2013-02-19 01:53:00,
2013-02-18 20:58:00,21.9,-6.9,29.71,North,0,0.0,0.0,27,0.00,,---,0.00,VWS V14.00,2013-02-19 01:58:00,
2013-02-18 21:04:00,21.9,-6.9,29.71,North,0,0.0,0.0,27,0.00,,---,0.00,VWS V14.00,2013-02-19 02:04:00,
2013-02-18 21:09:00,21.9,-6.9,29.71,North,0,0.0,0.0,27,0.00,,---,0.00,VWS V14.00,2013-02-19 02:09:00,
2013-02-18 21:14:00,21.7,-7.1,29.71,North,0,0.0,0.0,27,0.00,,---,0.00,VWS V14.00,2013-02-19 02:14:00,
2013-02-18 21:19:00,21.9,-6.9,29.71,North,0,0.0,0.0,27,0.00,,---,0.00,VWS V14.00,2013-02-19 02:19:00,
2013-02-18 21:25:00,21.7,-7.1,29.71,North,0,0.0,0.0,27,0.00,,---,0.00,VWS V14.00,2013-02-19 02:25:00,
2013-02-18 21:31:00,21.7,-7.1,29.71,North,0,0.0,0.0,27,0.00,,---,0.00,VWS V14.00,2013-02-19 02:31:00,
2013-02-18 21:36:00,21.6,-7.2,29.71,North,0,0.0,0.0,27,0.00,,---,0.00,VWS V14.00,2013-02-19 02:36:00,
2013-02-18 21:41:00,21.4,-7.4,29.71,North,0,0.0,0.0,27,0.00,,---,0.00,VWS V14.00,2013-02-19 02:41:00,
2013-02-18 21:46:00,21.4,-7.4,29.71,North,0,0.0,0.0,27,0.00,,---,0.00,VWS V14.00,2013-02-19 02:46:00,
2013-02-18 21:51:00,21.2,-7.6,29.71,North,0,0.0,0.0,27,0.00,,---,0.00,VWS V14.00,2013-02-19 02:51:00,
2013-02-18 21:56:00,21.0,-7.7,29.71,North,0,0.0,0.0,27,0.00,,---,0.00,VWS V14.00,2013-02-19 02:56:00,
2013-02-18 22:02:00,20.5,-6.0,29.71,North,0,0.0,0.0,30,0.00,,---,0.00,VWS V14.00,2013-02-19 03:02:00,
2013-02-18 22:07:00,20.1,-6.3,29.71,North,0,0.0,0.0,30,0.00,,---,0.00,VWS V14.00,2013-02-19 03:07:00,
2013-02-18 22:12:00,20.1,-6.3,29.71,North,0,0.0,0.0,30,0.00,,---,0.00,VWS V14.00,2013-02-19 03:12:00,
2013-02-18 22:17:00,20.1,-6.3,29.74,North,0,0.0,0.0,30,0.00,,---,0.00,VWS V14.00,2013-02-19 03:17:00,
2013-02-18 22:23:00,19.9,-6.5,29.74,North,0,0.0,0.0,30,0.00,,---,0.00,VWS V14.00,2013-02-19 03:23:00,
2013-02-18 22:29:00,19.8,-6.7,29.74,North,0,0.0,0.0,30,0.00,,---,0.00,VWS V14.00,2013-02-19 03:29:00,
2013-02-18 22:34:00,19.9,-5.2,29.74,North,0,0.0,0.0,32,0.00,,---,0.00,VWS V14.00,2013-02-19 03:34:00,
2013-02-18 22:40:00,20.3,-4.8,29.74,North,0,0.0,0.0,32,0.00,,---,0.00,VWS V14.00,2013-02-19 03:40:00,
2013-02-18 22:45:00,20.3,-4.8,29.74,North,0,0.0,0.0,32,0.00,,---,0.00,VWS V14.00,2013-02-19 03:45:00,
2013-02-18 22:50:00,20.3,-4.8,29.74,North,0,0.0,0.0,32,0.00,,---,0.00,VWS V14.00,2013-02-19 03:50:00,
2013-02-18 22:56:00,20.1,-5.0,29.74,North,0,0.0,0.0,32,0.00,,---,0.00,VWS V14.00,2013-02-19 03:56:00,
2013-02-18 23:02:00,19.9,-5.2,29.74,North,0,0.0,0.0,32,0.00,,---,0.00,VWS V14.00,2013-02-19 04:02:00,
2013-02-18 23:07:00,19.8,-5.3,29.74,North,0,0.0,0.0,32,0.00,,---,0.00,VWS V14.00,2013-02-19 04:07:00,
2013-02-18 23:12:00,19.9,-5.2,29.74,North,0,0.0,0.0,32,0.00,,---,0.00,VWS V14.00,2013-02-19 04:12:00,
2013-02-18 23:18:00,20.1,-5.0,29.74,North,0,0.0,0.0,32,0.00,,---,0.00,VWS V14.00,2013-02-19 04:18:00,
2013-02-18 23:24:00,20.3,-4.8,29.74,North,0,0.0,0.0,32,0.00,,---,0.00,VWS V14.00,2013-02-19 04:24:00,
2013-02-18 23:30:00,20.3,-4.8,29.74,North,0,0.0,0.0,32,0.00,,---,0.00,VWS V14.00,2013-02-19 04:30:00,
2013-02-18 23:35:00,20.3,-4.8,29.74,North,0,0.0,0.0,32,0.00,,---,0.00,VWS V14.00,2013-02-19 04:35:00,
2013-02-18 23:41:00,20.5,-4.7,29.74,North,0,0.0,0.0,32,0.00,,---,0.00,VWS V14.00,2013-02-19 04:41:00,
2013-02-18 23:46:00,20.7,-4.5,29.74,North,0,0.0,0.0,32,0.00,,---,0.00,VWS V14.00,2013-02-19 04:46:00,
2013-02-18 23:51:00,20.3,-4.8,29.74,North,0,0.0,0.0,32,0.00,,---,0.00,VWS V14.00,2013-02-19 04:51:00,
2013-02-18 23:56:00,19.8,-5.3,29.74,North,0,0.0,0.0,32,0.00,,---,0.00,VWS V14.00,2013-02-19 04:56:00,